Retour au catalogue

CZ-4 DEB

ActifSSO
NORAD 27676·DEBRIS·🇨🇳 China

Lancé Oct 14, 1999 depuis Taiyuan Satellite Launch Center

Loading…

Prochains Passages (prochaines 24 heures)

TLE

FraisSource: Space-Track

Époque: Sep 12, 2026, 03:05 UTC

1 27676U 99057MQ  26255.12910673  .00000378  00000-0  12452-3 0  9992
2 27676  98.6415 318.0448 0098896 352.9443   7.0347 14.41352043239205

Suivez CZ-4 DEB en temps réel avec AllMySat

Download on the App Store